[[{"header":{"parameterUnit":"m.s-1","parameterCategory":1,"la1":30.2991,"la2":30.254,"lo1":-89.0895,"lo2":-89.0444,"dy":0.0017,"dx":0.0017,"nx":28,"ny":28,"refTime":"2023-11-22T09:00:00:Z","depth":0,"parameterNumber":2,"parameterNumberName":"U-component_of_WINDS"},"data":[0,0,0,0,0,0,0,0,0,0,0,0,0,0,0,0,0,0,0,0,0,0,0,0,0,0,0,0,0,0,0,0,0,0,0,0,0,0,0,0,0,0,0,0,0,0,0,0,0,0,0,0,0,0,0,0,0,0,-2.4673,-2.4674,0,-2.4728,-2.4729,-2.4729,-2.4606,-2.4602,-2.4598,-2.4594,-2.4652,-2.4657,-2.4662,0,0,0,0,0,0,0,0,0,0,0,0,0,-2.4462,-2.4466,-2.4673,-2.4674,-2.4675,-2.4728,-2.4729,-2.473,-2.4606,-2.4602,-2.4597,-2.4592,-2.465,-2.4656,-2.4662,0,0,0,0,0,0,0,0,0,0,0,0,0,-2.4539,-2.4468,-2.4673,-2.462,-2.4615,-2.4728,-2.4729,-2.473,-2.4607,-2.4602,-2.4596,-2.459,-2.4648,-2.4656,-2.4663,-2.4831,0,0,-2.4687,-2.4691,0,0,0,0,0,0,0,0,-2.4535,-2.4547,-2.4627,-2.4624,-2.4619,-2.4654,-2.4675,-2.4764,-2.4609,-2.4611,-2.4594,-2.4587,-2.4657,-2.4664,-2.4687,-2.4833,-2.4836,-2.4688,-2.4693,-2.4696,-2.4698,0,0,0,0,0,0,0,-2.4529,-2.4544,-2.4695,-2.4628,-2.4623,-2.4593,-2.4597,-2.4691,-2.4667,-2.461,-2.4601,-2.4609,-2.4654,-2.468,-2.4688,-2.4837,-2.4688,-2.4695,-2.47,-2.4703,-2.5121,-2.5127,0,0,0,0,0,0,-2.4531,-2.454,-2.4693,-2.4697,-2.4561,-2.4601,-2.4606,-2.4649,-2.4665,-2.4662,-2.4614,-2.4603,-2.467,-2.4679,-2.4689,-2.4885,-2.4696,-2.4703,-2.4708,-2.5115,-2.5122,-2.5129,0,0,0,0,0,0,-2.4527,-2.4546,-2.4691,-2.4616,-2.4632,-2.4611,-2.466,-2.4653,-2.4679,-2.4669,-2.4664,-2.4646,-2.4665,-2.4678,-2.4796,-2.4886,-2.4707,-2.4714,-2.5107,-2.5117,-2.5126,-2.528,0,0,0,0,0,0,-2.4521,-2.4545,-2.4609,-2.4618,-2.4637,-2.4798,-2.4666,-2.4658,-2.4693,-2.4679,-2.4697,-2.4694,-2.4662,-2.4785,-2.4804,-2.4893,-2.472,-2.5099,-2.5111,-2.5123,-2.5267,-2.5294,-2.5317,0,0,0,0,0,-2.4514,-2.4651,-2.4613,-2.4632,-2.4716,-2.4803,-2.4813,-2.4773,-2.4701,-2.4764,-2.4757,-2.4693,-2.4873,-2.4798,-2.4818,-2.4912,-2.5093,-2.5108,-2.5122,-2.5256,-2.5288,-2.5316,0,0,0,0,0,0,-2.4653,-2.4651,-2.4609,-2.4752,-2.4779,-2.4782,-2.4861,-2.481,-2.4857,-2.4843,-2.4791,-2.4796,-2.4923,-2.4929,-2.4846,-2.5073,-2.497,-2.499,-2.5065,-2.5096,-2.5121,-2.5117,-2.4727,0,0,0,0,0,-2.47,-2.4771,-2.4765,-2.4893,-2.4908,-2.4883,-2.4919,-2.4886,-2.4911,-2.4922,-2.4923,-2.495,-2.5012,-2.5054,-2.5111,-2.5267,-2.5268,-2.5341,-2.5366,-2.5386,-2.5403,-2.5484,-2.5516,-2.5177,-2.5176,-2.5176,0,0,-2.4799,-2.4806,-2.4854,-2.4921,-2.4937,-2.5011,-2.4893,-2.4977,-2.5031,-2.4934,-2.5045,-2.5047,-2.5074,-2.5211,-2.5271,-2.5219,-2.5497,-2.5404,-2.5421,-2.5427,-2.5503,-2.5535,-2.5563,-2.5186,-2.5185,-2.5183,0,0,-2.5016,-2.503,-2.5136,-2.5155,-2.518,-2.5162,-2.5188,-2.5199,-2.5196,-2.5306,-2.5235,-2.5299,-2.5407,-2.5429,-2.5454,-2.5678,-2.5621,-2.5698,-2.5828,-2.5908,-2.5935,-2.5958,-2.6037,-2.6066,-2.5715,-2.5715,-2.5716,0,-2.5136,-2.5245,-2.5198,-2.5286,-2.5317,-2.5232,-2.5339,-2.5359,-2.5403,-2.5426,-2.5367,-2.5501,-2.5513,-2.5653,-2.5707,-2.5731,-2.5758,-2.5696,-2.5935,-2.5958,-2.5979,-2.6053,-2.6083,-2.5724,-2.5723,-2.5722,-2.5722,0,-2.539,-2.5466,-2.5549,-2.5592,-2.5632,-2.573,-2.5698,-2.5744,-2.5707,-2.5695,-2.5807,-2.5819,-2.5875,-2.5906,-2.5871,-2.6041,-2.6008,-2.5943,-2.5838,-2.6021,-2.609,-2.6119,-2.5738,-2.5734,-2.5732,-2.5729,0,0,-2.5697,-2.5712,-2.5743,-2.5761,-2.5783,-2.5841,-2.5934,-2.5989,-2.6029,-2.6062,-2.6138,-2.6231,-2.617,-2.6199,-2.6165,-2.6235,-2.641,-2.6161,-2.6161,-2.6207,-2.6597,-2.6646,-2.668,-2.6372,-2.6377,-2.6382,-2.6594,0,-2.5912,-2.6072,-2.6032,-2.619,-2.626,-2.6179,-2.626,-2.6281,-2.6272,-2.633,-2.6319,-2.6386,-2.6301,-2.6318,-2.6383,-2.6375,-2.6488,-2.6359,-2.6442,-2.6446,-2.6438,-2.6716,-2.6768,-2.6968,-2.6621,-2.6626,-2.6629,0,-2.6184,-2.6226,-2.6391,-2.6399,-2.6427,-2.6501,-2.6547,-2.6603,-2.6625,-2.6613,-2.6645,-2.6597,-2.6688,-2.6583,-2.6707,-2.6621,-2.6652,-2.6653,-2.666,-2.6666,-2.6549,-2.6729,-2.7031,-2.7061,-2.6672,-2.6668,-2.6665,0,-2.6391,-2.6489,-2.66,-2.6617,-2.663,-2.6684,-2.6692,-2.6708,-2.6743,-2.6783,-2.6805,-2.6856,-2.6884,-2.6924,-2.6891,-2.6817,-2.7021,-2.6913,-2.7013,-2.7014,-2.706,-2.7057,-2.7371,-2.7081,-2.708,-2.708,-2.7079,0,-2.6634,-2.6739,-2.6692,-2.6761,-2.6875,-2.6827,-2.6942,-2.694,-2.6955,-2.7021,-2.6955,-2.7018,-2.697,-2.703,-2.7004,-2.711,-2.7124,-2.7116,-2.7108,-2.7122,-2.7123,-2.7142,-2.7127,-2.7088,-2.7086,-2.7084,-2.7083,0,-2.6885,-2.6859,-2.6974,-2.6976,-2.6979,-2.7063,-2.7065,-2.7128,-2.7113,-2.7198,-2.7215,-2.7192,-2.7258,-2.7228,-2.7298,-2.7281,-2.7417,-2.7391,-2.741,-2.7403,-2.7505,-2.7495,-2.7841,-2.7884,-2.7567,-2.757,-2.7573,0,-2.7042,-2.712,-2.7131,-2.717,-2.7182,-2.7247,-2.7281,-2.7237,-2.7276,-2.7307,-2.7366,-2.7426,-2.7472,-2.7581,-2.7571,-2.7624,-2.7597,-2.7715,-2.7605,-2.7616,-2.7598,-2.7594,-2.7601,-2.7737,-2.7741,-2.7744,-2.7746,0,-2.7324,-2.7306,-2.7359,-2.7407,-2.7451,-2.7487,-2.7517,-2.7553,-2.7509,-2.7557,-2.7623,-2.7659,-2.7729,-2.7789,-2.7835,-2.7842,-2.7788,-2.7781,-2.7807,-2.7822,-2.7829,-2.7825,-2.747,-2.7773,-2.7771,-2.7769,-2.7767,-2.7766,-2.7532,-2.7597,-2.7614,-2.7674,-2.7692,-2.7721,-2.778,-2.7772,-2.7827,-2.788,-2.7851,-2.7928,-2.7947,-2.8002,-2.8017,-2.8076,-2.803,-2.8068,-2.8077,-2.8087,-2.81,-2.782,-2.8085,-2.8084,-2.8083,-2.8083,-2.8082,0,-2.7809,-2.7815,-2.7872,-2.7915,-2.7963,-2.7906,-2.7936,-2.7979,-2.8048,-2.807,-2.8116,-2.8192,-2.8249,-2.8243,-2.8295,-2.8344,-2.832,-2.8359,-2.8355,-2.8358,-2.8139,-2.8111,-2.8378,-2.8378,-2.8378,-2.8378,-2.8378,-2.8378,-2.7959,-2.8065,-2.805,-2.8164,-2.8169,-2.8244,-2.8266,-2.8292,-2.8309,-2.8396,-2.8444,-2.8439,-2.8449,-2.8501,-2.8552,-2.8548,-2.857,-2.8619,-2.8606,-2.8402,-2.8373,-2.8345,-2.8318,-2.8624,-2.8625,-2.8819,-2.8821,-2.8822]},{"header":{"parameterUnit":"m.s-1","parameterCategory":1,"la1":30.2991,"la2":30.254,"lo1":-89.0895,"lo2":-89.0444,"dy":0.0017,"dx":0.0017,"nx":28,"ny":28,"refTime":"2023-11-22T09:00:00:Z","depth":0,"parameterNumber":3,"parameterNumberName":"V-component_of_WINDS"},"data":[0,0,0,0,0,0,0,0,0,0,0,0,0,0,0,0,0,0,0,0,0,0,0,0,0,0,0,0,0,0,0,0,0,0,0,0,0,0,0,0,0,0,0,0,0,0,0,0,0,0,0,0,0,0,0,0,0,0,-3.3542,-3.3543,0,-3.3639,-3.364,-3.3641,-3.3614,-3.3612,-3.361,-3.3608,-3.3705,-3.3709,-3.3713,0,0,0,0,0,0,0,0,0,0,0,0,0,-3.3331,-3.3335,-3.3542,-3.3543,-3.3545,-3.3639,-3.364,-3.3641,-3.3614,-3.3612,-3.3609,-3.3607,-3.3703,-3.3708,-3.3714,0,0,0,0,0,0,0,0,0,0,0,0,0,-3.3424,-3.3336,-3.3542,-3.3542,-3.3543,-3.3638,-3.364,-3.3642,-3.3615,-3.3612,-3.3609,-3.3606,-3.3701,-3.3708,-3.3714,-3.3814,0,0,-3.3734,-3.3737,0,0,0,0,0,0,0,0,-3.3419,-3.3432,-3.3541,-3.3543,-3.3544,-3.3611,-3.3601,-3.3699,-3.3615,-3.3588,-3.3608,-3.3604,-3.3676,-3.3684,-3.3709,-3.3819,-3.3823,-3.3735,-3.3739,-3.3742,-3.3744,0,0,0,0,0,0,0,-3.3413,-3.3428,-3.358,-3.3543,-3.3544,-3.3537,-3.3547,-3.3619,-3.3647,-3.359,-3.3588,-3.36,-3.3676,-3.3702,-3.3711,-3.3824,-3.3735,-3.3741,-3.3745,-3.3747,-3.4018,-3.4022,0,0,0,0,0,0,-3.3406,-3.3423,-3.3577,-3.3583,-3.3473,-3.3543,-3.3554,-3.3593,-3.3646,-3.3651,-3.3602,-3.3598,-3.3693,-3.3703,-3.3714,-3.3833,-3.3742,-3.3748,-3.3752,-3.4015,-3.4019,-3.4023,0,0,0,0,0,0,-3.3401,-3.342,-3.3573,-3.3503,-3.3522,-3.355,-3.3593,-3.3596,-3.3623,-3.3656,-3.366,-3.3625,-3.3691,-3.3705,-3.3789,-3.3836,-3.3751,-3.3757,-3.4011,-3.4016,-3.4021,-3.4073,0,0,0,0,0,0,-3.3395,-3.3418,-3.3457,-3.3504,-3.3525,-3.3648,-3.3596,-3.36,-3.3634,-3.363,-3.3678,-3.3683,-3.369,-3.3779,-3.3796,-3.3844,-3.3762,-3.4007,-3.4014,-3.4019,-3.4067,-3.4079,-3.4089,0,0,0,0,0,-3.3388,-3.3468,-3.3459,-3.3478,-3.3575,-3.3651,-3.3663,-3.367,-3.3638,-3.3677,-3.3698,-3.3681,-3.3829,-3.3788,-3.3806,-3.3857,-3.4004,-3.4012,-3.4019,-3.4062,-3.4076,-3.4089,0,0,0,0,0,0,-3.3426,-3.3474,-3.3465,-3.3563,-3.3603,-3.3646,-3.3695,-3.3685,-3.3734,-3.3728,-3.3734,-3.3745,-3.3831,-3.3852,-3.3807,-3.3955,-3.3912,-3.3923,-3.3938,-3.3952,-3.3963,-3.3955,-3.3768,0,0,0,0,0,-3.3446,-3.3504,-3.3543,-3.3625,-3.3646,-3.3667,-3.37,-3.3702,-3.3743,-3.376,-3.3787,-3.3827,-3.3882,-3.3918,-3.3971,-3.407,-3.4079,-3.4114,-3.4124,-3.4133,-3.4143,-3.4195,-3.421,-3.4047,-3.4047,-3.4046,0,0,-3.3487,-3.3521,-3.3557,-3.3633,-3.3665,-3.3724,-3.3681,-3.3746,-3.379,-3.377,-3.3851,-3.3872,-3.3917,-3.4009,-3.405,-3.4029,-3.419,-3.4143,-3.4149,-3.4154,-3.4204,-3.422,-3.4233,-3.4052,-3.4051,-3.405,0,0,-3.3592,-3.3624,-3.3696,-3.3728,-3.3776,-3.3789,-3.3807,-3.3851,-3.3865,-3.3946,-3.3932,-3.3983,-3.4079,-3.4111,-3.414,-3.4256,-3.4242,-3.4273,-3.433,-3.4381,-3.4394,-3.4405,-3.4445,-3.446,-3.4282,-3.4283,-3.4283,0,-3.3638,-3.3727,-3.3734,-3.38,-3.3833,-3.3818,-3.3889,-3.392,-3.3982,-3.4005,-3.3981,-3.4099,-3.4129,-3.4227,-3.4255,-3.4279,-3.4298,-3.4267,-3.4392,-3.4403,-3.4414,-3.4452,-3.4468,-3.4286,-3.4286,-3.4285,-3.4285,0,-3.3779,-3.3842,-3.3893,-3.3954,-3.3994,-3.4062,-3.4078,-3.4116,-3.4114,-3.413,-3.4212,-3.4247,-3.4306,-3.4329,-3.4328,-3.4427,-3.4412,-3.439,-3.4346,-3.4433,-3.4469,-3.4484,-3.4291,-3.429,-3.4289,-3.4288,0,0,-3.3912,-3.3975,-3.3994,-3.4021,-3.4072,-3.412,-3.4187,-3.4245,-3.4277,-3.432,-3.4376,-3.4456,-3.4435,-3.4468,-3.447,-3.4515,-3.4603,-3.4487,-3.4488,-3.4506,-3.4713,-3.4729,-3.4746,-3.4595,-3.4597,-3.46,-3.4709,0,-3.4021,-3.4139,-3.4147,-3.4254,-3.431,-3.4296,-3.4354,-3.4391,-3.4408,-3.4457,-3.4474,-3.4531,-3.45,-3.452,-3.4563,-3.4583,-3.4645,-3.4576,-3.4645,-3.4647,-3.4633,-3.4765,-3.4782,-3.4883,-3.4723,-3.4725,-3.4727,0,-3.4164,-3.4211,-3.4324,-3.4366,-3.439,-3.4443,-3.4496,-3.4544,-3.4585,-3.4593,-3.4629,-3.4625,-3.4692,-3.4646,-3.4738,-3.4691,-3.472,-3.4734,-3.4738,-3.4744,-3.4692,-3.4773,-3.4916,-3.4931,-3.475,-3.4748,-3.4746,0,-3.4247,-3.434,-3.4419,-3.4442,-3.4494,-3.4531,-3.4554,-3.4592,-3.4626,-3.4672,-3.4694,-3.4747,-3.4776,-3.4816,-3.4826,-3.4792,-3.4917,-3.4872,-3.4925,-3.4925,-3.4951,-3.4949,-3.51,-3.4972,-3.4971,-3.4971,-3.4971,0,-3.4367,-3.4436,-3.4457,-3.4505,-3.4582,-3.4589,-3.4664,-3.4685,-3.4719,-3.477,-3.4761,-3.4809,-3.4819,-3.4869,-3.4877,-3.4951,-3.4964,-3.4972,-3.4973,-3.4973,-3.4971,-3.4991,-3.4983,-3.4975,-3.4974,-3.4973,-3.4973,0,-3.4473,-3.449,-3.4575,-3.4617,-3.4629,-3.4683,-3.4718,-3.4764,-3.4779,-3.4844,-3.486,-3.4883,-3.4941,-3.4954,-3.5024,-3.5029,-3.5116,-3.5111,-3.5102,-3.5102,-3.5153,-3.5147,-3.532,-3.5342,-3.5201,-3.5202,-3.5203,0,-3.4549,-3.4601,-3.4649,-3.4683,-3.4707,-3.4763,-3.4797,-3.4806,-3.4842,-3.4892,-3.4932,-3.4989,-3.5035,-3.5128,-3.515,-3.5203,-3.5198,-3.5255,-3.5206,-3.5203,-3.5197,-3.5194,-3.5198,-3.5264,-3.5265,-3.5267,-3.5268,0,-3.468,-3.4685,-3.4736,-3.4789,-3.4831,-3.4873,-3.4913,-3.4941,-3.4955,-3.4996,-3.5056,-3.5091,-3.5162,-3.5218,-3.5271,-3.5293,-3.5282,-3.5283,-3.5298,-3.5297,-3.5289,-3.5293,-3.5127,-3.5279,-3.5278,-3.5277,-3.5276,-3.5276,-3.4772,-3.4818,-3.4858,-3.4914,-3.4945,-3.4983,-3.5028,-3.5048,-3.5098,-3.5157,-3.5158,-3.5223,-3.5261,-3.5331,-3.5356,-3.5406,-3.5388,-3.541,-3.5415,-3.542,-3.5424,-3.5282,-3.5416,-3.5415,-3.5415,-3.5415,-3.5415,0,-3.4901,-3.4926,-3.4978,-3.5035,-3.5079,-3.5066,-3.5109,-3.5147,-3.5204,-3.5241,-3.5286,-3.5354,-3.5408,-3.5435,-3.5488,-3.5523,-3.5519,-3.5537,-3.5534,-3.5539,-3.5438,-3.5419,-3.5539,-3.5539,-3.5538,-3.5538,-3.5538,-3.5538,-3.4974,-3.505,-3.506,-3.5152,-3.5176,-3.5239,-3.5265,-3.5299,-3.5329,-3.5405,-3.545,-3.5468,-3.55,-3.5556,-3.5605,-3.5611,-3.563,-3.565,-3.5654,-3.5559,-3.5546,-3.5534,-3.5516,-3.5654,-3.5654,-3.575,-3.5751,-3.5752]}]]